COSMOS 2251 DEB, 35026

Orbit data source: Space-Track

COSMOS 2251 DEB, 35026 is space debris in LEO originally from a launch on Wed, 16 Jun 1993 UTC launched from the Plesetsk Missile And Space Complex (PKMTR). The debris from Iridium 33, an American commercial communications satellite, has been tracked extensively since its accidental collision with the defunct Russian satellite Cosmos 2251 in 2009. This event, occurring at high speed in low Earth orbit (LEO), generated thousands of pieces of space debris, significantly increasing the risk of further collisions. The Iridium 33 debris cloud has impacted space traffic management and orbital debris mitigation strategies, making it a subject of ongoing study in space situational awareness.

Loading next visibility...
Identifier
35026, 1993-036AGP
Orbit
LEO
Country
Flag of CISCIS
Related business
Manufacturer
Unknown
Mission
Spacecraft
Bus & Motor
Unknown
Mass
Unknown
Launch date (UTC)
1993-06-16 (32 years ago)
Launch vehicle
Unknown
Launch site
Plesetsk Missile And Space Complex (PKMTR)
Object type
Payload
Rocket body
Debris
Shape & HBR
Unknown shape, 0.1 m
Radar Cross Section
Small (<0.1 m²)

Expand to show TLE details & history
Last TLE update: 3 days ago

TLE from 3 days ago
0 COSMOS 2251 DEB
1 35026U 93036AGP 25302.53441485  .00000502  00000-0  12172-3 0  9996
2 35026  74.0481  42.2478 0083370 168.0223 206.9448 14.53583064875015
Epoch: 2025-10-29T12:49Z
TLE epoch observation values (Epoch: 2025-10-29T12:49:33.443Z)
Latitude
13.94118°
Longitude
175.79947°
Altitude
768.683 km
Speed
7.443 km/s
True Right ascension
03h 05m 10s
True Declination
13° 51' 40"
Sunlit
Object was in full shadow at epoch
Visualization orbit readout
Latitude
Unknown
Longitude
Unknown
Altitude
Unknown
Speed
Unknown
Apparent Right ascension
Unknown
Apparent Declination
Unknown
Sunlit
N/A
Visualization observer readout
Local Sidereal Time
13:29:29
Azimuth
Unknown
Elevation
Unknown
Doppler factor
Unknown
Orbital elements
Apogee altitude
770.68 km
Perigee altitude
652.466 km
Semi-major axis
7,089.71 km
Eccentricity
0.00834
Inclination
74.0481°
RAAN
42.2478°
Arg. of periapsis
168.0223°
True anomaly
206.51589°
Mean anomaly
206.9448°
Eccentric anomaly
206.72995°
Mean motion
3.6358 °/min
Orbital period
99.02 mins
BSTAR
0.00012172

Documentation

Showing up to 5 results
|